N18VK EDDW-EDXW

Flight info

Callsign N18VK
Flight time 0h 41m
Altitude 13000
Route WSN1M WSN Y850 MUBZI M105 OMWEG/N0230F120 DCT BADOS DCT OLDIP
Aircraft BE60/L-SDFGRY/S

Departure

Time 2026-05-06 14:09
Airport Bremen Airport (EDDW)

Arrival

Time 2026-05-06 14:50
Airport Westerland Sylt Airport (EDXW)
Time Latitude Longitude Altitude Speed Heading
2026-05-06 13:46 53.05113 8.78020 16 ft 0 kts 99°
2026-05-06 14:01 53.05111 8.78036 16 ft 5 kts 99°
2026-05-06 14:02 53.05083 8.78107 16 ft 11 kts 142°
2026-05-06 14:02 53.05030 8.78200 16 ft 10 kts 141°
2026-05-06 14:02 53.04971 8.78275 16 ft 10 kts 172°
2026-05-06 14:02 53.04907 8.78306 16 ft 10 kts 139°
2026-05-06 14:03 53.04857 8.78386 15 ft 11 kts 134°
2026-05-06 14:03 53.04848 8.78406 15 ft 0 kts 107°
2026-05-06 14:03 53.04848 8.78420 15 ft 3 kts 88°
2026-05-06 14:03 53.04847 8.78485 15 ft 7 kts 91°
2026-05-06 14:04 53.04848 8.78584 15 ft 10 kts 88°
2026-05-06 14:04 53.04816 8.78663 14 ft 9 kts 162°
2026-05-06 14:04 53.04781 8.78666 13 ft 0 kts 176°
2026-05-06 14:08 53.04766 8.78668 14 ft 6 kts 176°
2026-05-06 14:08 53.04705 8.78676 15 ft 9 kts 174°
2026-05-06 14:08 53.04685 8.78709 16 ft 6 kts 85°
2026-05-06 14:09 53.04685 8.78720 16 ft 0 kts 86°
2026-05-06 14:09 53.04698 8.79223 15 ft 80 kts 88°
2026-05-06 14:09 53.04680 8.80323 214 ft 103 kts 86°
2026-05-06 14:09 53.04630 8.81569 642 ft 115 kts 87°
2026-05-06 14:10 53.04669 8.82477 980 ft 118 kts 78°
2026-05-06 14:10 53.04765 8.83849 1538 ft 119 kts 80°
2026-05-06 14:10 53.04805 8.85208 2134 ft 117 kts 82°
2026-05-06 14:10 53.04840 8.86527 2702 ft 112 kts 83°
2026-05-06 14:11 53.04872 8.87818 3162 ft 115 kts 83°
2026-05-06 14:11 53.04900 8.89189 3546 ft 122 kts 84°
2026-05-06 14:11 53.04931 8.90612 3939 ft 126 kts 85°
2026-05-06 14:11 53.04958 8.92088 4374 ft 129 kts 86°
2026-05-06 14:12 53.04989 8.93594 4815 ft 132 kts 86°
2026-05-06 14:12 53.05020 8.95125 5266 ft 133 kts 88°
2026-05-06 14:12 53.05248 8.96601 5708 ft 136 kts 56°
2026-05-06 14:12 53.06048 8.97444 6164 ft 145 kts 14°
2026-05-06 14:13 53.07080 8.97366 6614 ft 151 kts 356°
2026-05-06 14:13 53.08126 8.97075 7043 ft 154 kts 356°
2026-05-06 14:13 53.09201 8.96805 7455 ft 157 kts 358°
2026-05-06 14:13 53.10292 8.96568 7880 ft 159 kts 358°
2026-05-06 14:14 53.11398 8.96358 8315 ft 160 kts 358°
2026-05-06 14:14 53.12515 8.96156 8773 ft 161 kts 359°
2026-05-06 14:14 53.13636 8.95964 9244 ft 162 kts 359°
2026-05-06 14:14 53.14763 8.95773 9706 ft 163 kts 358°
2026-05-06 14:15 53.15894 8.95582 10126 ft 164 kts 358°
2026-05-06 14:15 53.17018 8.95394 10538 ft 165 kts 359°
2026-05-06 14:15 53.18164 8.95204 10944 ft 166 kts 358°
2026-05-06 14:15 53.19332 8.95008 11365 ft 168 kts 359°
2026-05-06 14:16 53.20514 8.94813 11733 ft 173 kts 359°
2026-05-06 14:16 53.21704 8.94618 12118 ft 176 kts 359°
2026-05-06 14:16 53.22929 8.94418 12521 ft 178 kts 357°
2026-05-06 14:16 53.24187 8.94205 12826 ft 187 kts 358°
2026-05-06 14:17 53.25550 8.93982 12866 ft 206 kts 358°
2026-05-06 14:17 53.27024 8.93739 12882 ft 219 kts 358°
2026-05-06 14:17 53.28580 8.93485 12882 ft 229 kts 358°
2026-05-06 14:17 53.30162 8.93219 12872 ft 226 kts 357°
2026-05-06 14:18 53.31696 8.92949 12874 ft 222 kts 357°
2026-05-06 14:18 53.33228 8.92681 12879 ft 221 kts 357°
2026-05-06 14:18 53.34757 8.92429 12879 ft 219 kts 358°
2026-05-06 14:18 53.36278 8.92184 12880 ft 220 kts 358°
2026-05-06 14:19 53.37798 8.91922 12869 ft 219 kts 356°
2026-05-06 14:19 53.39309 8.91661 12861 ft 217 kts 358°
2026-05-06 14:19 53.40805 8.91407 12868 ft 215 kts 357°
2026-05-06 14:19 53.42292 8.91156 12864 ft 215 kts 357°
2026-05-06 14:20 53.43773 8.90905 12865 ft 213 kts 357°
2026-05-06 14:20 53.45252 8.90653 12876 ft 213 kts 356°
2026-05-06 14:20 53.46735 8.90402 12884 ft 215 kts 357°
2026-05-06 14:20 53.48230 8.90152 12884 ft 216 kts 357°
2026-05-06 14:21 53.49727 8.89899 12871 ft 216 kts 356°
2026-05-06 14:21 53.51199 8.89649 12868 ft 215 kts 356°
2026-05-06 14:21 53.52681 8.89398 12869 ft 214 kts 357°
2026-05-06 14:21 53.54156 8.89147 12885 ft 214 kts 357°
2026-05-06 14:22 53.55644 8.88895 12898 ft 216 kts 356°
2026-05-06 14:22 53.57150 8.88635 12904 ft 219 kts 357°
2026-05-06 14:22 53.58681 8.88376 12902 ft 223 kts 357°
2026-05-06 14:22 53.60236 8.88105 12885 ft 225 kts 356°
2026-05-06 14:23 53.61802 8.87848 12879 ft 226 kts 357°
2026-05-06 14:23 53.63368 8.87595 12869 ft 226 kts 357°
2026-05-06 14:23 53.64928 8.87330 12870 ft 225 kts 357°
2026-05-06 14:23 53.66468 8.87067 12880 ft 225 kts 356°
2026-05-06 14:24 53.68026 8.86802 12874 ft 224 kts 354°
2026-05-06 14:24 53.69569 8.86539 12868 ft 222 kts 353°
2026-05-06 14:24 53.71094 8.86276 12867 ft 218 kts 353°
2026-05-06 14:24 53.72595 8.86017 12867 ft 216 kts 353°
2026-05-06 14:25 53.74081 8.85759 12871 ft 214 kts 353°
2026-05-06 14:25 53.75557 8.85504 12877 ft 212 kts 353°
2026-05-06 14:25 53.77026 8.85251 12880 ft 211 kts 353°
2026-05-06 14:25 53.78486 8.85000 12883 ft 211 kts 353°
2026-05-06 14:26 53.79945 8.84748 12886 ft 210 kts 353°
2026-05-06 14:26 53.81400 8.84496 12886 ft 210 kts 353°
2026-05-06 14:26 53.82842 8.84248 12884 ft 210 kts 354°
2026-05-06 14:26 53.84299 8.83998 12883 ft 210 kts 353°
2026-05-06 14:27 53.85756 8.83747 12882 ft 210 kts 353°
2026-05-06 14:27 53.87212 8.83496 12882 ft 210 kts 353°
2026-05-06 14:27 53.88665 8.83247 12882 ft 210 kts 353°
2026-05-06 14:27 53.90121 8.82999 12882 ft 210 kts 354°
2026-05-06 14:28 53.91576 8.82750 12884 ft 210 kts 353°
2026-05-06 14:28 53.93034 8.82507 12884 ft 210 kts 351°
2026-05-06 14:28 53.94488 8.82265 12884 ft 209 kts 350°
2026-05-06 14:28 53.95934 8.82007 12884 ft 209 kts 351°
2026-05-06 14:29 53.97378 8.81750 12885 ft 209 kts 352°
2026-05-06 14:29 53.98825 8.81498 12884 ft 209 kts 351°
2026-05-06 14:29 54.00270 8.81249 12884 ft 208 kts 352°
2026-05-06 14:29 54.01709 8.81002 12884 ft 208 kts 351°
2026-05-06 14:30 54.03149 8.80741 12884 ft 208 kts 350°
2026-05-06 14:30 54.04581 8.80415 12883 ft 207 kts 341°
2026-05-06 14:30 54.05857 8.79379 12835 ft 206 kts 328°
2026-05-06 14:30 54.07101 8.78111 12651 ft 211 kts 325°
2026-05-06 14:31 54.08355 8.76747 12442 ft 216 kts 324°
2026-05-06 14:31 54.09611 8.75331 12251 ft 218 kts 324°
2026-05-06 14:31 54.10872 8.73887 12059 ft 217 kts 324°
2026-05-06 14:31 54.12120 8.72445 11859 ft 217 kts 324°
2026-05-06 14:32 54.13360 8.70978 11664 ft 216 kts 323°
2026-05-06 14:32 54.14592 8.69520 11467 ft 216 kts 323°
2026-05-06 14:32 54.15821 8.68050 11270 ft 216 kts 324°
2026-05-06 14:32 54.17045 8.66565 11074 ft 216 kts 323°
2026-05-06 14:33 54.18265 8.65083 10879 ft 215 kts 323°
2026-05-06 14:33 54.19482 8.63609 10687 ft 214 kts 323°
2026-05-06 14:33 54.20682 8.62153 10507 ft 214 kts 323°
2026-05-06 14:33 54.21900 8.60678 10316 ft 214 kts 323°
2026-05-06 14:34 54.23110 8.59203 10131 ft 214 kts 323°
2026-05-06 14:34 54.24320 8.57715 9946 ft 214 kts 324°
2026-05-06 14:34 54.25521 8.56228 9767 ft 213 kts 323°
2026-05-06 14:34 54.26719 8.54733 9569 ft 213 kts 324°
2026-05-06 14:35 54.27911 8.53231 9366 ft 213 kts 323°
2026-05-06 14:35 54.29094 8.51714 9178 ft 212 kts 324°
2026-05-06 14:35 54.30267 8.50179 8979 ft 212 kts 324°
2026-05-06 14:35 54.31429 8.48634 8786 ft 211 kts 323°
2026-05-06 14:36 54.32587 8.47083 8597 ft 211 kts 324°
2026-05-06 14:36 54.33733 8.45508 8405 ft 211 kts 324°
2026-05-06 14:36 54.34863 8.43923 8287 ft 208 kts 323°
2026-05-06 14:36 54.35962 8.42388 8186 ft 205 kts 322°
2026-05-06 14:37 54.37066 8.40857 8064 ft 203 kts 325°
2026-05-06 14:37 54.38159 8.39327 7944 ft 203 kts 324°
2026-05-06 14:37 54.39249 8.37802 7827 ft 201 kts 326°
2026-05-06 14:37 54.40530 8.37054 7688 ft 194 kts
2026-05-06 14:38 54.41737 8.37871 7569 ft 188 kts 45°
2026-05-06 14:38 54.42507 8.39642 7488 ft 184 kts 58°
2026-05-06 14:38 54.43162 8.41526 7380 ft 183 kts 60°
2026-05-06 14:38 54.43790 8.43453 7244 ft 186 kts 62°
2026-05-06 14:39 54.44412 8.45412 7074 ft 188 kts 62°
2026-05-06 14:39 54.45034 8.47389 6913 ft 188 kts 62°
2026-05-06 14:39 54.45657 8.49373 6747 ft 189 kts 62°
2026-05-06 14:39 54.46278 8.51377 6559 ft 191 kts 62°
2026-05-06 14:40 54.46899 8.53384 6395 ft 190 kts 62°
2026-05-06 14:40 54.47516 8.55371 6214 ft 188 kts 62°
2026-05-06 14:40 54.48168 8.57320 6020 ft 188 kts 50°
2026-05-06 14:40 54.49303 8.58412 5807 ft 194 kts 14°
2026-05-06 14:41 54.50625 8.58658 5631 ft 194 kts
2026-05-06 14:41 54.51971 8.58755 5455 ft 193 kts
2026-05-06 14:41 54.53308 8.58803 5303 ft 192 kts
2026-05-06 14:41 54.54643 8.58846 5110 ft 192 kts
2026-05-06 14:42 54.55976 8.58893 4932 ft 191 kts
2026-05-06 14:42 54.57309 8.58661 4765 ft 193 kts 356°
2026-05-06 14:42 54.58627 8.58254 4591 ft 192 kts 353°
2026-05-06 14:42 54.59933 8.57805 4411 ft 191 kts 352°
2026-05-06 14:43 54.61238 8.57342 4231 ft 191 kts 352°
2026-05-06 14:43 54.62545 8.56894 4050 ft 191 kts 352°
2026-05-06 14:43 54.63846 8.56450 3897 ft 190 kts 352°
2026-05-06 14:43 54.65139 8.55997 3712 ft 189 kts 353°
2026-05-06 14:44 54.66425 8.55518 3531 ft 188 kts 352°
2026-05-06 14:44 54.67705 8.55054 3348 ft 188 kts 352°
2026-05-06 14:44 54.68985 8.54588 3193 ft 188 kts 352°
2026-05-06 14:45 54.71505 8.53681 2998 ft 184 kts 352°
2026-05-06 14:45 54.72779 8.53235 2970 ft 189 kts 352°
2026-05-06 14:45 54.74079 8.52786 2969 ft 192 kts 353°
2026-05-06 14:45 54.75399 8.52339 2968 ft 195 kts 353°
2026-05-06 14:46 54.76737 8.51880 2953 ft 197 kts 350°
2026-05-06 14:46 54.77986 8.50854 2952 ft 202 kts 332°
2026-05-06 14:46 54.79134 8.49425 2954 ft 205 kts 326°
2026-05-06 14:46 54.80245 8.47742 2571 ft 221 kts 323°
2026-05-06 14:47 54.81400 8.46272 2245 ft 191 kts 331°
2026-05-06 14:47 54.82446 8.45042 1978 ft 173 kts 329°
2026-05-06 14:47 54.83386 8.43877 1748 ft 161 kts 329°
2026-05-06 14:47 54.84265 8.42773 1532 ft 152 kts 329°
2026-05-06 14:48 54.85090 8.41763 1389 ft 137 kts 328°
2026-05-06 14:48 54.85837 8.40839 1180 ft 127 kts 328°
2026-05-06 14:48 54.86529 8.39986 1015 ft 119 kts 327°
2026-05-06 14:48 54.87168 8.39191 846 ft 104 kts 327°
2026-05-06 14:49 54.87695 8.38513 714 ft 89 kts 329°
2026-05-06 14:49 54.88203 8.37896 598 ft 88 kts 330°
2026-05-06 14:49 54.88692 8.37304 487 ft 83 kts 330°
2026-05-06 14:49 54.89154 8.36716 340 ft 85 kts 329°
2026-05-06 14:50 54.89635 8.36114 247 ft 85 kts 332°
2026-05-06 14:50 54.90134 8.35515 127 ft 88 kts 329°
2026-05-06 14:50 54.90630 8.34904 48 ft 80 kts 329°
2026-05-06 14:50 54.90972 8.34486 31 ft 44 kts 326°
2026-05-06 14:51 54.91165 8.34244 31 ft 26 kts 323°
2026-05-06 14:51 54.91253 8.34134 31 ft 11 kts 324°
2026-05-06 14:51 54.91303 8.34068 30 ft 10 kts 302°
2026-05-06 14:51 54.91280 8.33918 29 ft 14 kts 245°
2026-05-06 14:52 54.91220 8.33744 27 ft 20 kts 236°
2026-05-06 14:52 54.91131 8.33523 27 ft 22 kts 232°
2026-05-06 14:52 54.91082 8.33337 27 ft 18 kts 242°
2026-05-06 14:52 54.91016 8.33103 28 ft 25 kts 259°
2026-05-06 14:53 54.91054 8.32919 27 ft 15 kts 310°
2026-05-06 14:53 54.91123 8.32779 23 ft 10 kts 310°
2026-05-06 14:53 54.91177 8.32669 22 ft 11 kts 306°
2026-05-06 14:53 54.91220 8.32592 22 ft 9 kts 318°
2026-05-06 14:54 54.91232 8.32540 22 ft 2 kts 229°
2026-05-06 14:54 54.91231 8.32539 22 ft 0 kts 229°